CAPE
0 0 0 0 0 0 0 0 0 0 0 0 0 0 0 0 0 0 0 0 0 0 0 0 0 0 0 0 0 0 0 2 24 191 234 240 235 301 487 306 222 144 201 270 275 127 129 56 145
0 0 0 0 0 0 0 0 0 0 0 0 0 0 0 0 0 0 0 0 0 0 0 0 0 0 0 0 0 0 0 1 4 50 158 216 256 320 307 479 444 279 398 268 294 227 96 120 157
0 0 0 0 0 0 0 0 0 0 0 0 0 0 0 0 0 0 0 0 0 0 0 0 0 0 0 0 0 0 0 1 2 8 108 219 156 235 370 254 516 370 268 231 251 321 265 188 134
0 0 0 0 0 0 0 0 0 0 0 0 0 0 0 0 0 0 0 0 0 0 0 0 0 0 0 0 0 0 0 0 1 7 12 90 217 155 182 269 328 200 166 269 259 383 227 122 61
0 0 0 0 0 0 0 0 0 0 0 0 0 0 0 0 0 0 0 0 0 0 0 0 0 0 0 0 0 0 0 0 0 4 6 8 74 112 133 137 249 228 95 93 353 394 152 92 132
0 0 0 0 0 0 0 0 0 0 0 0 0 0 0 0 0 0 0 0 0 0 0 0 0 0 0 0 0 0 0 0 0 0 0 2 5 93 140 160 102 136 290 114 135 359 104 88 118
0 0 0 0 0 0 0 0 0 0 0 0 0 0 0 0 0 0 0 0 0 0 0 0 0 0 0 0 0 0 0 0 0 0 0 0 0 4 73 104 18 68 81 221 128 192 49 22 46
0 0 0 0 0 0 0 0 0 0 0 0 0 0 0 0 0 0 0 0 0 0 0 0 0 0 0 0 0 0 0 0 0 0 0 0 0 17 77 72 32 20 35 144 151 7 19 5 28
0 0 0 0 0 0 0 0 0 0 0 0 0 0 0 0 0 0 0 0 0 0 0 0 0 0 0 0 0 0 0 0 0 0 0 0 4 11 104 272 104 18 13 45 25 59 29 13 13
0 0 0 0 0 0 0 0 0 0 0 0 0 0 0 0 0 0 0 0 0 0 0 0 0 0 0 0 0 0 0 0 0 0 0 0 2 5 0 110 110 11 9 65 85 7 40 52 19
0 0 0 0 0 0 0 0 0 0 0 0 0 0 0 0 0 0 0 0 0 0 0 0 0 0 0 0 0 0 0 0 0 0 0 0 2 7 24 174 316 44 14 86 66 60 35 51 3
0 0 0 0 0 0 0 0 0 0 0 0 0 0 0 0 0 0 0 0 0 0 0 0 0 0 0 0 0 0 0 0 0 0 0 0 0 9 7 94 225 265 244 134 22 0 7 1 5
0 0 0 0 0 0 0 0 0 0 0 0 0 0 0 0 0 0 0 0 0 0 0 0 0 0 0 0 0 0 0 0 0 0 0 0 3 2 10 18 287 256 178 133 50 18 1 4 0
0 0 0 0 0 0 0 0 0 0 0 0 0 0 0 0 0 0 0 0 0 0 0 0 0 0 0 0 0 0 0 0 0 0 0 0 3 3 4 29 161 210 180 101 6 6 2 2 0
0 0 0 0 0 0 0 0 0 0 0 0 0 0 0 0 0 0 0 0 0 0 0 0 0 0 0 0 0 0 0 0 0 0 0 0 1 6 2 17 52 132 146 3 3 2 2 2 2
0 0 0 0 0 0 0 0 0 0 0 0 0 0 0 0 0 0 0 0 0 0 0 0 0 0 0 0 0 0 0 0 0 0 0 0 3 10 2 2 19 68 92 27 3 2 2 1 1
0 0 0 0 0 0 0 0 0 0 0 0 0 0 0 0 0 0 0 0 0 0 0 0 0 0 0 0 0 0 0 0 0 0 0 2 3 6 6 2 3 12 142 86 23 3 2 0 1
0 0 0 0 0 0 0 0 0 0 0 0 0 0 0 0 0 0 0 0 0 0 0 0 0 0 0 0 0 0 2 2 3 2 2 3 7 0 1 5 1 12 99 39 14 2 5 2 0
0 0 0 0 0 0 0 0 0 0 0 0 0 0 0 0 0 0 0 0 0 0 0 0 0 0 0 0 0 0 2 1 0 2 0 2 2 2 2 7 0 4 57 4 2 2 2 3 5
0 0 0 0 0 0 0 0 0 0 0 0 0 0 0 0 0 0 0 0 0 0 0 0 0 0 0 0 0 0 2 2 0 1 0 0 1 0 0 5 0 2 23 22 0 1 1 4 5
0 0 0 0 0 0 0 0 0 0 0 0 0 0 0 0 0 0 0 0 0 0 0 0 0 0 0 0 0 0 0 0 0 0 0 0 0 3 1 1 3 3 1 25 2 1 1 4 13
0 0 0 0 0 0 0 0 0 0 0 0 0 0 0 0 0 0 0 0 0 0 0 0 0 0 0 0 0 0 1 0 0 0 0 0 1 1 3 2 2 0 2 21 19 5 9 0 5
0 0 0 0 0 0 0 0 0 0 0 0 0 0 0 0 0 0 0 0 0 0 0 0 0 0 0 0 0 0 1 0 1 0 0 1 0 0 2 1 2 1 2 10 24 5 16 1 2
0 0 0 0 0 0 0 0 0 0 0 0 0 0 0 0 0 0 0 0 0 0 0 0 0 0 0 0 0 0 0 0 0 0 0 1 0 0 1 1 1 2 2 1 32 27 18 3 20
0 0 0 0 0 0 0 0 0 0 0 0 0 0 0 0 0 0 0 0 0 0 0 0 0 0 0 0 1 0 0 1 0 0 1 1 0 0 0 1 2 2 2 2 1 26 60 19 14
0 0 0 0 0 0 0 0 0 0 0 0 0 0 0 0 0 0 0 0 0 0 0 0 0 0 0 0 0 1 1 1 1 0 0 0 0 0 0 0 1 3 1 2 0 35 43 16 21
0 0 0 0 0 0 0 0 0 0 0 0 0 0 0 0 0 0 0 0 0 0 0 0 0 0 0 0 0 0 0 0 0 0 0 0 0 0 0 1 2 2 3 1 1 38 29 20 11
0 0 0 0 0 0 0 0 0 0 0 0 0 0 0 0 0 0 0 0 0 0 0 0 0 0 0 0 0 0 1 1 0 0 0 0 0 1 1 2 2 1 0 3 46 68 44 19 15
0 0 0 0 0 0 0 0 0 0 0 0 0 0 0 0 0 0 0 0 0 0 0 0 0 0 0 0 1 0 1 0 0 0 0 0 1 1 2 2 0 0 14 52 35 14 15 7 8
0 0 0 0 0 0 0 0 0 0 0 0 0 0 0 0 0 0 0 0 0 0 0 0 0 0 0 0 1 0 0 0 0 0 0 1 1 1 2 1 0 5 37 38 10 2 2 8 0
CIN
0 0 0 0 0 0 0 0 0 0 0 0 0 0 0 0 0 0 0 0 0 0 0 0 0 0 0 0 0 0 0 0 -56 -44 -21 -8 -16 -5 0 -5 -5 -12 -5 0 0 0 -2 -1 -1
0 0 0 0 0 0 0 0 0 0 0 0 0 0 0 0 0 0 0 0 0 0 0 0 0 0 0 0 0 0 0 0 0 -76 -35 -25 -7 -10 -7 0 0 -1 0 0 0 0 -8 -2 0
0 0 0 0 0 0 0 0 0 0 0 0 0 0 0 0 0 0 0 0 0 0 0 0 0 0 0 0 0 0 0 0 0 -9 -97 -43 -64 -35 -7 -14 0 -1 -1 0 0 0 0 0 0
0 0 0 0 0 0 0 0 0 0 0 0 0 0 0 0 0 0 0 0 0 0 0 0 0 0 0 0 0 0 0 0 0 0 0 -85 -35 -64 -65 -31 -13 -11 -9 0 0 0 0 0 -7
0 0 0 0 0 0 0 0 0 0 0 0 0 0 0 0 0 0 0 0 0 0 0 0 0 0 0 0 0 0 0 0 0 0 0 0 -1 -2 -6 -28 -34 -9 -10 -11 0 0 0 0 0
0 0 0 0 0 0 0 0 0 0 0 0 0 0 0 0 0 0 0 0 0 0 0 0 0 0 0 0 0 0 0 0 0 0 0 0 -24 -14 -10 -7 -43 -52 -4 -11 -5 0 0 -1 0
0 0 0 0 0 0 0 0 0 0 0 0 0 0 0 0 0 0 0 0 0 0 0 0 0 0 0 0 0 0 0 0 0 0 0 0 0 -127 -34 -28 -79 -42 -75 -19 -15 -2 -2 -15 -3
0 0 0 0 0 0 0 0 0 0 0 0 0 0 0 0 0 0 0 0 0 0 0 0 0 0 0 0 0 0 0 0 0 0 0 0 0 -49 -32 -42 -65 -119 -73 -42 -4 -38 -4 -47 -14
0 0 0 0 0 0 0 0 0 0 0 0 0 0 0 0 0 0 0 0 0 0 0 0 0 0 0 0 0 0 0 0 0 0 0 0 0 0 -6 0 -40 -36 -127 -87 -16 0 -10 -3 -31
0 0 0 0 0 0 0 0 0 0 0 0 0 0 0 0 0 0 0 0 0 0 0 0 0 0 0 0 0 0 0 0 0 0 0 0 0 -1 -2 -14 -37 -31 -87 -37 -11 -27 -12 0 -19
0 0 0 0 0 0 0 0 0 0 0 0 0 0 0 0 0 0 0 0 0 0 0 0 0 0 0 0 0 0 0 0 0 0 0 0 -2 -1 -7 -7 0 -67 -53 -4 -23 -12 -36 -1 0
0 0 0 0 0 0 0 0 0 0 0 0 0 0 0 0 0 0 0 0 0 0 0 0 0 0 0 0 0 0 0 0 0 0 0 0 0 0 0 -33 -2 0 -2 0 -109 -15 -32 0 -1
0 0 0 0 0 0 0 0 0 0 0 0 0 0 0 0 0 0 0 0 0 0 0 0 0 0 0 0 0 0 0 0 0 0 0 0 -1 -1 0 -26 -2 0 -1 0 -47 -85 0 -68 0
0 0 0 0 0 0 0 0 0 0 0 0 0 0 0 0 0 0 0 0 0 0 0 0 0 0 0 0 0 0 0 0 0 0 0 0 -1 -2 -6 -6 -4 -1 0 0 -61 -97 0 0 0
0 0 0 0 0 0 0 0 0 0 0 0 0 0 0 0 0 0 0 0 0 0 0 0 0 0 0 0 0 0 0 0 0 0 0 0 -1 0 -4 0 -21 -4 0 -18 0 -1 0 -43 -27
0 0 0 0 0 0 0 0 0 0 0 0 0 0 0 0 0 0 0 0 0 0 0 0 0 0 0 0 0 0 0 0 0 0 0 0 -3 -1 -2 -4 -24 -27 0 -10 -2 0 0 0 0
0 0 0 0 0 0 0 0 0 0 0 0 0 0 0 0 0 0 0 0 0 0 0 0 0 0 0 0 0 0 0 0 0 0 0 0 -2 -2 0 -1 -1 -103 -1 -11 -16 -1 0 0 0
0 0 0 0 0 0 0 0 0 0 0 0 0 0 0 0 0 0 0 0 0 0 0 0 0 0 0 0 0 0 -1 0 0 -1 -1 -3 -1 -1 -4 -1 0 -51 -16 -1 -7 -5 -28 0 0
0 0 0 0 0 0 0 0 0 0 0 0 0 0 0 0 0 0 0 0 0 0 0 0 0 0 0 0 0 0 -1 -1 0 -1 -7 0 -3 -11 -5 0 0 -74 -52 -23 0 -30 0 0 0
0 0 0 0 0 0 0 0 0 0 0 0 0 0 0 0 0 0 0 0 0 0 0 0 0 0 0 0 0 0 0 0 0 0 -1 0 -1 0 0 0 0 0 -7 -2 0 0 0 0 -2
0 0 0 0 0 0 0 0 0 0 0 0 0 0 0 0 0 0 0 0 0 0 0 0 0 0 0 0 0 0 -1 0 -2 0 0 0 0 0 0 0 -26 -11 0 -17 -12 0 0 0 0
0 0 0 0 0 0 0 0 0 0 0 0 0 0 0 0 0 0 0 0 0 0 0 0 0 0 0 0 0 0 0 0 0 0 0 0 0 0 0 0 0 0 0 -11 -2 0 -3 0 0
0 0 0 0 0 0 0 0 0 0 0 0 0 0 0 0 0 0 0 0 0 0 0 0 0 0 0 0 0 0 -1 0 0 0 0 0 0 0 0 0 0 0 0 0 -9 0 -6 0 0
0 0 0 0 0 0 0 0 0 0 0 0 0 0 0 0 0 0 0 0 0 0 0 0 0 0 0 0 0 0 -1 0 -1 0 -1 0 0 0 0 0 0 0 0 0 -1 0 -2 0 -2
0 0 0 0 0 0 0 0 0 0 0 0 0 0 0 0 0 0 0 0 0 0 0 0 0 0 0 0 0 0 -1 0 0 0 -1 0 0 0 0 0 0 0 0 0 -6 0 0 0 -13
0 0 0 0 0 0 0 0 0 0 0 0 0 0 0 0 0 0 0 0 0 0 0 0 0 0 0 0 -1 -1 -1 0 0 0 0 0 0 0 0 0 0 0 0 0 0 0 0 0 -15
0 0 0 0 0 0 0 0 0 0 0 0 0 0 0 0 0 0 0 0 0 0 0 0 0 0 0 0 0 0 0 -1 0 0 0 0 0 0 0 0 0 0 0 0 -24 0 0 -3 -3
0 0 0 0 0 0 0 0 0 0 0 0 0 0 0 0 0 0 0 0 0 0 0 0 0 0 0 0 0 0 0 0 0 0 0 0 0 0 0 0 0 0 0 -10 -7 0 -2 -18 -22
0 0 0 0 0 0 0 0 0 0 0 0 0 0 0 0 0 0 0 0 0 0 0 0 0 0 0 0 0 0 0 0 0 0 0 0 0 0 0 0 0 0 -69 -5 -4 -6 -7 -17 -22
0 0 0 0 0 0 0 0 0 0 0 0 0 0 0 0 0 0 0 0 0 0 0 0 0 0 0 0 0 0 0 0 0 0 0 0 0 0 0 0 0 -3 -1 -3 -2 0 -18 -38 0
Wind_Speed
22 17 15 12 12 11 11 14 15 13 13 14 15 15 17 18 18 18 14 16 18 19 21 23 26 26 27 27 28 28 28 26 26 26 21 16 13 11 9 10 11 12 11 10 8 10 6 4 3
18 16 12 14 12 8 12 13 13 12 14 13 15 15 15 15 16 15 14 16 18 20 21 23 26 27 27 28 27 27 27 26 26 26 23 21 19 15 14 12 11 13 12 10 7 9 12 7 4
16 14 14 14 14 10 17 15 13 13 13 14 16 16 18 17 16 15 15 16 18 20 22 23 26 26 26 26 26 26 26 26 26 25 26 23 21 20 19 16 16 13 14 12 10 9 10 9 7
14 13 14 13 12 17 17 15 13 12 14 14 16 17 15 17 15 15 14 15 17 19 21 23 25 25 26 26 26 26 26 26 25 26 26 27 25 24 24 23 21 21 16 15 13 9 9 9 9
12 14 13 14 15 16 15 14 11 10 15 14 14 17 18 15 13 15 15 15 17 19 21 21 22 24 25 25 25 26 26 26 26 26 27 27 28 28 28 27 26 30 26 17 18 11 12 10 7
12 14 13 13 17 16 16 12 10 10 11 13 16 16 18 16 12 13 14 15 17 20 20 20 21 22 23 24 24 26 26 27 27 27 26 27 26 27 28 29 28 30 33 32 26 19 13 11 7
13 13 14 18 18 17 15 12 7 11 10 11 14 16 16 12 11 13 14 15 16 19 19 19 20 21 20 22 23 26 27 28 29 29 28 27 28 26 26 29 30 31 30 33 31 24 10 10 6
13 15 16 16 19 19 16 13 14 10 12 14 12 15 15 12 10 13 14 14 16 17 17 18 19 20 21 22 22 26 27 29 30 29 29 30 29 24 25 25 30 31 29 29 29 16 11 6 6
14 13 14 16 18 18 16 14 13 15 10 10 9 11 16 13 12 14 14 15 16 17 16 16 17 19 20 21 22 26 28 30 29 28 28 28 27 25 26 23 31 31 28 25 21 18 12 9 5
13 14 18 19 19 20 17 12 15 14 10 7 8 8 12 12 13 14 14 16 16 18 17 15 17 18 20 21 23 27 30 30 29 27 28 28 27 27 26 25 29 32 31 26 23 13 7 2 8
14 15 21 20 20 21 20 13 9 13 11 8 8 10 7 9 12 13 13 14 17 19 17 15 16 17 20 22 25 28 29 28 29 28 27 28 27 27 25 24 25 28 28 30 24 16 14 8 8
15 16 17 20 21 19 16 17 8 4 4 15 16 13 11 9 12 12 13 15 19 18 17 15 15 17 20 22 24 28 29 28 27 27 28 26 27 28 24 24 23 27 25 27 24 17 13 8 7
13 17 17 18 19 17 14 6 3 6 6 7 11 10 8 10 12 13 14 17 18 18 17 14 15 18 20 21 24 27 28 27 27 28 27 26 26 27 26 24 24 25 24 22 22 15 11 4 7
17 16 17 17 18 16 14 11 15 13 17 9 6 4 5 9 10 12 14 17 18 18 17 15 16 18 20 22 25 27 26 24 25 26 24 25 25 26 26 24 24 24 20 17 20 14 14 8 8
18 20 17 15 17 18 17 13 1 6 12 11 11 8 6 9 9 10 13 17 19 18 18 18 17 18 21 23 25 26 23 23 23 24 23 25 26 24 25 26 25 23 16 13 17 13 12 11 9
19 20 24 16 18 18 18 15 16 14 11 11 7 8 9 9 9 11 14 17 18 18 19 19 18 20 21 23 23 25 21 21 19 20 21 22 24 22 24 26 24 23 19 19 12 8 10 11 10
16 25 23 22 18 22 11 13 15 14 14 9 7 6 7 10 9 13 15 17 18 19 19 18 19 21 21 22 22 22 19 18 15 13 16 19 22 21 23 23 23 24 21 24 16 13 9 10 9
21 24 22 25 21 22 7 12 12 9 10 6 6 5 4 10 10 13 14 17 18 18 19 19 20 21 21 21 22 22 18 17 14 13 13 11 22 21 22 21 22 23 21 18 21 20 16 10 9
23 26 28 28 22 24 4 10 8 9 15 12 8 4 2 4 9 12 14 17 18 18 18 18 20 21 21 21 22 22 19 16 15 14 13 20 19 20 21 21 22 23 23 22 18 15 11 9 7
21 24 26 24 22 24 10 20 14 15 14 14 15 11 8 7 8 11 13 16 17 17 18 18 20 20 20 20 20 18 17 14 14 12 10 17 17 18 21 20 21 22 26 26 19 19 14 7 9
21 21 24 23 30 16 23 10 13 14 14 13 12 12 10 9 9 11 14 16 17 17 18 19 20 20 19 19 20 18 16 14 13 13 15 18 19 19 21 21 22 22 24 26 24 16 11 20 10
24 20 20 23 27 23 23 21 13 13 13 12 10 9 9 9 10 13 15 17 18 19 19 19 20 19 19 19 19 18 15 14 14 12 12 19 18 19 20 21 23 23 22 29 20 19 20 12 10
21 20 20 24 23 24 17 16 14 14 11 10 10 10 10 10 11 13 15 19 19 19 19 19 20 19 18 18 19 17 16 13 12 11 10 16 17 18 19 21 21 24 25 29 19 21 12 9 10
16 20 21 22 21 21 16 15 14 13 12 10 10 10 11 11 13 14 16 18 18 19 18 19 19 19 18 18 18 17 16 13 12 12 12 18 19 19 19 20 21 23 29 29 21 23 15 11 15
19 19 23 22 20 20 15 15 5 14 13 11 9 10 11 12 13 14 15 16 17 18 18 19 19 20 17 18 18 17 16 15 12 12 11 19 19 19 19 20 20 24 30 29 25 27 21 17 23
15 19 18 21 21 21 18 14 14 15 11 10 10 10 12 12 13 14 15 16 17 17 17 19 19 20 18 18 18 17 16 16 14 12 13 16 17 20 20 20 21 26 29 27 29 28 23 29 32
18 17 19 18 21 23 17 16 12 12 10 7 7 8 9 12 13 14 14 15 16 17 17 18 18 20 19 18 18 16 16 15 15 13 14 15 17 19 19 20 22 28 31 31 33 30 23 24 27
20 16 17 17 19 21 20 18 8 13 6 4 5 6 9 11 14 15 14 14 15 16 18 18 18 19 20 18 18 17 16 15 15 15 13 15 16 17 18 19 23 30 31 33 34 30 25 20 18
19 19 17 16 18 19 23 19 18 17 9 4 4 6 9 11 15 15 12 13 14 15 17 18 18 19 20 18 18 18 17 15 17 14 13 13 14 15 16 18 21 32 30 33 32 29 27 21 20
25 20 13 18 18 19 21 23 17 17 12 7 7 6 9 11 15 15 11 11 12 13 16 17 18 19 20 20 19 19 18 17 18 14 13 12 12 14 16 21 18 30 32 31 29 29 29 24 21
Wind_Direction
290 344 358 20 355 356 358 349 345 356 358 359 358 357 348 345 342 342 9 1 357 354 354 355 348 348 347 344 342 339 337 337 336 336 335 334 331 329 326 318 310 305 306 305 297 289 280 275 297
334 344 15 349 352 5 358 346 346 353 349 359 355 352 351 349 342 344 351 355 351 350 352 352 347 345 344 343 342 341 338 337 336 335 333 327 323 320 314 310 305 301 297 294 284 277 272 253 256
344 353 349 349 339 352 341 348 346 346 345 342 343 344 339 345 344 346 354 358 354 350 350 350 347 347 348 348 348 346 343 339 336 333 331 326 318 312 308 304 301 298 294 287 278 267 255 239 250
357 5 350 349 349 338 337 348 351 351 343 339 338 337 349 342 348 353 3 359 356 352 352 349 348 350 350 349 349 346 344 341 337 332 328 322 314 309 301 298 296 293 291 283 277 255 214 218 240
14 353 354 350 343 341 346 348 355 349 341 343 344 338 337 350 352 350 356 1 355 353 352 354 354 354 352 351 350 347 345 342 338 333 326 320 311 301 296 292 290 285 285 282 276 240 203 208 220
13 358 358 353 343 346 347 355 358 351 347 344 340 335 337 348 353 354 358 0 357 352 354 355 357 355 355 354 352 349 346 341 336 331 327 321 316 308 297 288 286 282 275 272 276 271 199 191 224
4 2 352 342 341 343 350 5 7 353 348 347 347 343 346 356 -0 0 360 359 356 353 355 358 360 358 358 356 354 349 344 339 332 328 324 318 313 311 304 290 282 276 276 272 269 279 197 248 244
3 354 347 350 345 343 353 0 357 354 347 352 358 355 351 359 4 358 0 360 356 356 1 2 2 0 359 357 354 347 342 334 329 326 321 314 310 312 305 296 279 274 278 273 268 249 254 220 217
360 356 354 347 345 347 352 355 1 354 356 3 7 353 350 358 360 354 356 355 354 357 0 6 4 2 1 358 354 346 338 332 330 326 321 314 310 309 305 300 276 270 273 268 281 275 208 217 191
357 350 346 342 342 338 344 356 349 352 356 352 352 350 353 354 350 349 353 353 354 353 359 6 4 1 359 356 352 344 337 334 331 327 322 314 308 303 302 299 281 269 265 264 268 280 319 210 211
355 347 336 339 335 330 334 353 356 353 356 347 348 353 354 354 350 350 353 356 351 353 0 6 3 1 357 353 348 343 339 337 331 326 323 314 305 299 297 298 284 275 268 260 262 274 282 283 169
346 344 341 338 333 337 346 346 359 338 322 349 347 354 2 0 349 351 355 354 350 355 358 4 3 359 356 353 348 343 340 337 333 326 319 313 302 294 298 288 288 277 273 260 260 258 294 247 204
343 340 343 341 336 341 348 356 303 264 322 334 343 350 359 354 350 352 355 350 353 355 358 2 1 357 355 353 349 344 341 339 333 325 320 311 298 289 289 288 279 278 274 263 253 252 230 186 221
338 341 340 342 337 344 350 351 352 359 348 346 337 327 345 351 352 353 354 350 354 359 1 2 1 358 357 353 349 345 344 343 338 330 324 310 295 287 281 279 277 272 279 271 247 238 236 226 219
336 331 339 342 341 341 350 350 16 2 356 353 352 350 344 348 355 353 353 350 354 1 3 3 3 3 359 355 351 348 350 347 342 334 327 305 287 286 279 269 267 266 283 273 248 234 235 230 204
329 330 315 341 343 343 348 348 356 1 356 349 351 350 345 349 352 355 354 353 359 6 8 11 11 5 2 358 355 352 354 352 351 343 328 312 294 287 276 262 260 264 264 249 257 210 220 206 203
328 307 317 325 339 331 358 348 356 354 347 340 341 338 345 349 354 353 356 360 6 12 14 14 12 6 5 2 0 359 4 3 5 8 353 319 291 283 271 263 260 257 256 241 239 242 219 214 210
313 309 319 318 332 330 242 256 249 338 340 306 297 290 301 344 359 4 4 5 11 17 17 16 13 11 10 8 6 5 13 15 19 22 11 3 264 276 265 267 261 253 250 250 246 242 239 243 220
310 306 304 303 327 332 253 261 266 333 341 346 344 309 282 353 7 10 6 8 14 20 19 19 15 15 16 15 12 10 17 25 29 30 18 289 292 282 271 265 259 252 246 242 249 248 227 225 208
311 309 308 318 330 336 301 262 266 356 3 10 15 30 50 38 26 17 9 11 17 22 22 21 19 20 20 21 19 22 24 41 43 46 68 322 318 294 268 266 260 249 237 232 242 248 228 205 163
308 311 314 323 306 352 323 355 18 10 10 22 32 32 37 31 27 20 10 12 18 24 24 24 23 23 25 26 23 27 32 44 53 42 359 309 295 287 270 260 251 243 239 230 233 231 227 216 213
302 315 321 323 324 337 348 346 8 11 10 20 33 43 39 32 28 17 10 8 17 24 28 28 28 29 31 30 28 31 38 47 47 63 34 315 306 278 260 247 241 242 243 219 232 231 229 206 195
305 316 322 318 330 335 351 354 8 7 11 19 33 40 37 38 29 20 13 6 15 27 31 32 32 33 38 36 34 37 37 52 57 79 78 337 306 279 259 246 245 240 233 216 238 223 228 211 183
316 315 320 325 334 335 353 359 8 10 9 26 36 46 39 41 24 18 14 11 18 28 36 34 36 36 43 42 40 42 44 55 58 54 55 308 282 265 255 247 244 241 221 221 236 217 224 222 216
303 313 318 324 333 335 354 353 355 357 9 24 41 47 38 37 27 18 16 15 21 29 38 37 41 39 48 46 48 49 49 54 73 60 70 268 259 248 246 241 243 231 212 213 224 216 220 219 211
298 303 317 320 329 335 342 349 3 357 5 26 36 38 34 37 28 19 16 15 20 29 41 40 45 43 51 53 52 51 57 55 76 121 165 231 237 234 236 237 247 217 210 216 212 215 222 212 204
295 299 308 321 326 329 342 347 350 351 5 40 38 44 42 34 28 21 17 19 23 31 41 46 51 48 53 58 56 62 63 72 80 122 168 193 215 221 227 237 235 205 202 203 198 212 219 217 219
287 299 306 316 322 327 335 342 354 359 5 44 50 43 28 26 23 20 20 20 24 32 40 51 56 53 56 64 65 66 72 81 104 109 189 210 214 217 230 237 207 192 196 190 190 200 213 228 235
275 282 299 311 314 325 329 342 347 345 6 51 43 18 16 15 14 17 26 23 28 34 40 52 57 60 58 67 70 68 73 94 102 139 188 197 202 214 233 217 202 172 188 180 182 187 203 227 233
273 278 281 295 305 313 324 329 346 342 2 11 8 11 6 5 6 11 26 28 30 36 43 50 59 64 63 68 78 75 84 95 112 157 185 192 184 191 191 174 202 153 157 166 184 168 176 219 231